This is the latest recevied weather packets stored in our database for station/object ZL3GL-4. If no packets are shown the sender has not sent any weather packets the latest 10 day(s).
| Time | Temp. | Humidity | Pressure | Rain* | Wind** | Luminosity | Snow |
|---|---|---|---|---|---|---|---|
| 1777861594 | 13.33° C | 89% | 1030.7 hPa | 0 mm | 1.34 m/s, 342° | - | - |
| 1777860746 | 13.33° C | 89% | 1030.7 hPa | 0 mm | 2.24 m/s, 11° | - | - |
| 1777859903 | 13.33° C | 88% | 1030.9 hPa | 0 mm | 1.34 m/s, 359° | - | - |
| 1777859062 | 13.33° C | 88% | 1030.9 hPa | 0 mm | 0.45 m/s, 24° | - | - |
| 1777857373 | 13.33° C | 89% | 1031.2 hPa | 0 mm | 1.79 m/s, 7° | - | - |
| 1777856529 | 13.33° C | 92% | 1031.4 hPa | 0 mm | 2.24 m/s, 332° | - | - |
| 1777855684 | 13.33° C | 93% | 1031.6 hPa | 0 mm | 1.79 m/s, 359° | - | - |
| 1777854843 | 12.78° C | 93% | 1031.7 hPa | 0 mm | 1.34 m/s, 345° | - | - |
| 1777853997 | 13.33° C | 92% | 1032 hPa | 0 mm | 1.34 m/s, 346° | - | - |
| 1777853153 | 13.33° C | 92% | 1032.2 hPa | 0 mm | 0.45 m/s, 34° | - | - |
| 1777851466 | 13.33° C | 94% | 1032.5 hPa | 0 mm | 1.79 m/s, 10° | - | - |
| 1777850626 | 13.33° C | 92% | 1032.5 hPa | 0 mm | 0 m/s | - | - |
| 1777849779 | 13.33° C | 93% | 1032.5 hPa | 0 mm | 1.79 m/s, 343° | - | - |
| 1777848939 | 13.33° C | 95% | 1032.6 hPa | 0 mm | 0.89 m/s, 332° | - | - |
| 1777848098 | 12.78° C | 97% | 1032.5 hPa | 0 mm | 1.34 m/s, 343° | - | - |
| 1777847249 | 12.22° C | 98% | 1032.4 hPa | 0 mm | 0.89 m/s, 13° | - | - |
| 1777846406 | 11.67° C | 99% | 1032.4 hPa | 0 mm | 1.34 m/s, 291° | - | - |
| 1777845563 | 11.67° C | 99% | 1032.5 hPa | 0 mm | 0.45 m/s, 270° | - | - |
| 1777844718 | 11.67° C | 100% | 1032.4 hPa | 0 mm | 1.34 m/s, 250° | - | - |
| 1777843874 | 11.11° C | 100% | 1032.3 hPa | 0 mm | 1.34 m/s, 305° | - | - |
| 1777843029 | 11.11° C | 100% | 1032.3 hPa | 0 mm | 1.34 m/s, 266° | - | - |
| 1777842185 | 10.56° C | 100% | 1032.3 hPa | 0 mm | 0.89 m/s, 246° | - | - |
| 1777841341 | 10° C | 100% | 1032.3 hPa | 0 mm | 1.79 m/s, 259° | - | - |
| 1777839655 | 10° C | 100% | 1032.1 hPa | 0 mm | 1.34 m/s, 229° | - | - |
| 1777838816 | 10° C | 100% | 1031.8 hPa | 0 mm | 0.45 m/s, 208° | - | - |
* Rain latest hour (hover to see other rain measurements)
** Current wind speed in m/s (hover to see current wind gust speed)